Regional Weather Roundup
Issued by NWS Sioux Falls, SD

Home | Current Version | Previous Version | Text Only | Print | Product List | Glossary On
Versions: 1 2 3 4 5 6 7 8 9 10 11 12 13 14 15 16 17 18 19 20 21 22 23 24 25 26 27 28 29 30 31 32 33 34 35 36 37 38 39 40 41 42 43 44 45 46 47 48 49 50
000
ASUS43 KFSD 291902
RWRFSD

WEATHER ROUNDUP FOR SE SOUTH DAKOTA/SW MINNESOTA/NW IOWA
NATIONAL WEATHER SERVICE SIOUX FALLS SD
200 PM CDT WED JUL 29 2015

NOTE: "FAIR" INDICATES FEW OR NO CLOUDS BELOW 12,000 FEET WITH NO
SIGNIFICANT WEATHER AND OR OBSTRUCTIONS TO VISIBILITY.


SDZ038>040-050-052>070-292000-
SOUTHEAST SOUTH DAKOTA

CITY           SKY/WX    TMP DP  RH WIND       PRES   REMARKS
BROOKINGS      SUNNY     79  54  41 W20G28    30.09F
CHAMBERLAIN    SUNNY     83  47  27 W21G26    30.14S
HURON          SUNNY     84  49  29 NW24G33   30.07F
MADISON        FAIR      79  50  36 W20G31    30.11S
MITCHELL       SUNNY     85  49  28 W18G28    30.11F
SIOUX FALLS    MOSUNNY   80  53  39 W13G25    30.11F
WINNER         FAIR      87  42  20 W20G28    30.17F
YANKTON        SUNNY     82  50  32 W15G21    30.13F
$$

MNZ071-072-080-081-089-090-097-098-292000-
SOUTHWEST MINNESOTA

CITY           SKY/WX    TMP DP  RH WIND       PRES   REMARKS
FAIRMONT       SUNNY     81  52  36 W16G26    30.07S
JACKSON        SUNNY     79  55  44 W18       30.10S
LUVERNE        SUNNY     81  54  39 W16G24    30.12F
MARSHALL       SUNNY     81  52  36 W25G36    30.06S
MONTEVIDEO     SUNNY     81  54  39 NW17G30   30.01S
PIPESTONE      SUNNY     79  54  41 W17G23    30.11S
REDWOOD FALLS  SUNNY     81  52  36 W23G35    30.01S
TRACY          SUNNY     79  55  44 W12G21    30.07S
WINDOM         SUNNY     79  55  44 W20G29    30.08S
WORTHINGTON    SUNNY     77  57  50 W15G24    30.10F
$$

IAZ001>003-012>014-020>022-031-032-NEZ013-014-SDZ071-292000-
NORTHWEST IOWA

CITY           SKY/WX    TMP DP  RH WIND       PRES   REMARKS
DENISON        MOSUNNY   79  57  47 W15       30.14S
ESTHERVILLE    SUNNY     79  56  45 W18G26    30.09F
SIOUX CITY     SUNNY     83  56  39 W13G18    30.14F
SPENCER        SUNNY     82  54  37 W18G29    30.12F
$$

ABBREVIATIONS USED IN REMARKS
   TC - TEMPERATURE IN CELSIUS
  WCI - WIND CHILL INDEX
   HX - HEAT INDEX
  VSB - VISIBILITY



USA.gov is the U.S. government's official web portal to all federal, state and local government web resources and services.